Regional Weather Roundup
Issued by NWS

Home | Current Version | Previous Version | Text Only | Print | Product List | Glossary Off
Versions: 1 2 3 4 5 6 7 8 9 10 11 12 13 14 15 16 17 18 19 20 21 22 23 24 25 26 27 28 29 30 31 32 33 34 35 36 37 38 39 40 41 42 43 44 45 46 47 48 49 50

000
ASUS44 KMEG 252300
RWRTN
TENNESSEE HOURLY STATE WEATHER ROUNDUP
NATIONAL WEATHER SERVICE MEMPHIS TN
500 PM CST SAT FEB 25 2017

TNZ002-004-019-021-049-052-054-088>092-260000-
WEST TENNESSEE

CITY           SKY/WX    TMP DP  RH WIND       PRES   REMARKS
MEMPHIS INTL   CLEAR     45  21  38 NW15      30.14S
NWS MEMPHIS      N/A     46 N/A N/A MISG        N/A
JACKSON        CLEAR     44  21  40 W7        30.13R
UNION CITY     CLEAR     41  10  28 CALM      30.11S
PARIS          CLEAR     37  19  48 W10       30.11R WCI  30
$$

TNZ008-025-027-028-033-062-065-066-260000-
NORTH MIDDLE TENNESSEE

CITY           SKY/WX    TMP DP  RH WIND       PRES   REMARKS
NASHVILLE      PTCLDY    47  15  27 NW10G20   30.05R
CLARKSVILLE    CLEAR     42  17  36 NW13      30.08R
SMYRNA         CLEAR     46  18  32 NW12      30.06R
CROSSVILLE     CLEAR     40  15  36 W12G17    29.98R WCI  33
$$

TNZ061-075-076-078-094-096-097-260000-
SOUTH MIDDLE TENNESSEE

CITY           SKY/WX    TMP DP  RH WIND       PRES   REMARKS
TULLAHOMA      CLEAR     45  12  26 NW10      30.03S
WINCHESTER     CLEAR     46  19  34 NW8       30.03R
MCMINNVILLE    CLEAR     45  18  33 NW9       30.02S
COLUMBIA       CLEAR     46  16  29 NW8       30.05R
SHELBYVILLE    CLEAR     48  19  32 W12       30.05R
$$

TNZ017-018-042-046-047-260000-
NORTHEAST TENNESSEE

CITY           SKY/WX    TMP DP  RH WIND       PRES   REMARKS
TRI CITIES     PTCLDY    47  24  40 W15G25    29.88R
$$

TNZ012-013-036-069-073-074-260000-
CENTRAL EAST TENNESSEE

CITY           SKY/WX    TMP DP  RH WIND       PRES   REMARKS
KNOXVILLE      PTCLDY    49  16  26 NW16G22   29.95R
OAK RIDGE      CLEAR     48  19  31 W10G21    29.99R
GATLINBURG     CLEAR     48  19  32 W14       29.93R
$$

TNZ083-085-099-260000-
SOUTHEAST TENNESSEE

CITY           SKY/WX    TMP DP  RH WIND       PRES   REMARKS
CHATTANOOGA    CLEAR     51  19  28 W16       29.99R
$$

SKY/WX REPORTED AS FAIR MEANS FEW OR NO CLOUDS BELOW
12 THOUSAND FEET.





USA.gov is the U.S. government's official web portal to all federal, state and local government web resources and services.